sat.trackr.live / text

‹ back to catalog

STARLINK-5473

NORAD 55663 · 2023-021AM

PAYLOAD ACTIVE UNKNOWN

§ Identity

Operator
Country
US
Launch date
2023-02-17
Launch site
AFWTR
Launch vehicle
Mass (kg)
RCS (m²)

Purposes: comms

External: N2YO · Heavens-Above · Gunter

§ Orbital elements

Epoch: 2026-05-24T22:06:19.336032Z

Period
96.11 min
Inclination
69.9993°
Eccentricity
0.0002768
Mean motion
14.98317170 rev/d
Perigee alt
570.2 km
Apogee alt
574.0 km
Semi-major
6,950.2 km
B*
4.9543e-5
RAAN
332.2331°
Arg perigee
264.3756°
Mean anomaly
95.7087°
Rev number
18,069

§ Raw data

STARLINK-54731 55663U 23021AM  26144.92105713  .00000498  00000+0  49543-4 0  99972 55663  69.9993 332.2331 0002768 264.3756  95.7087 14.98317170180696

JSON: /api/v1/satellites/55663 · /tle

For live sub-satellite position, see the globe view (requires WebGL).

§ Visibility from observer

Set your observer location to see the next 7 days of passes ≥ 10°. The values pass through the URL so the page stays shareable.

No JS? Fill the form by hand. The geolocation button needs JavaScript.